Stations météo

réclame
Mon MeteoGroup
Torino/Caselle, Italie (16059): Température de l'air & dewpoint: 12.10.2017 16:00:00 - 18.10.2017 16:00:00 (CEST)Torino/Caselle, Italie (16059): Vitesse du vent: 12.10.2017 16:00:00 - 18.10.2017 16:00:00 (CEST)Torino/Caselle, Italie (16059): Direction du vent: 12.10.2017 16:00:00 - 18.10.2017 16:00:00 (CEST)Torino/Caselle, Italie (16059): reduced air pressure: 12.10.2017 16:00:00 - 18.10.2017 16:00:00 (CEST)Torino/Caselle, Italie (16059): visibility: 12.10.2017 16:00:00 - 18.10.2017 16:00:00 (CEST)Torino/Caselle, Italie (16059): Quantités de précipitations: 12.10.2017 16:00:00 - 18.10.2017 16:00:00 (CEST)
Date & Time tt [°C] td [°C] ff [km/h] ff [knt] dd ppp [hPa] vv [km] rr [mm]
18.10.2017 16:00:00 21,0 7,0 5 3 S - 7 -
18.10.2017 15:00:00 21,0 8,0 4 2 - - 7 -
18.10.2017 14:00:00 20,1 8,3 8 4 ESE 1019,2 7 -
18.10.2017 13:00:00 18,0 9,0 5 3 E - 8 -
18.10.2017 12:00:00 17,0 8,0 4 2 - - 8 -
18.10.2017 11:00:00 16,1 8,7 4 2 - 1020,9 8 0,0
18.10.2017 10:00:00 13,0 7,0 2 1 - - 8 -
18.10.2017 09:00:00 10,0 6,0 4 2 - - 8 -
18.10.2017 08:00:00 9,8 5,7 4 2 - 1020,7 8 -
18.10.2017 07:00:00 10,0 6,0 5 3 WNW - 10 -
18.10.2017 06:00:00 10,0 6,0 4 2 WNW - 10 -
18.10.2017 05:00:00 11,1 6,9 4 2 - 1021,6 10 0,0
18.10.2017 04:00:00 11,0 7,0 4 2 - - 10 -
18.10.2017 03:00:00 12,0 8,0 4 2 - - 9 -
18.10.2017 02:00:00 12,3 7,5 5 3 WNW 1022,6 9 -
18.10.2017 01:00:00 13,0 8,0 4 2 - - 9 -
18.10.2017 00:00:00 14,0 8,0 5 3 WNW - 9 -
17.10.2017 23:00:00 12,5 8,2 5 3 NW 1023,2 9 0,0
17.10.2017 22:00:00 16,0 9,0 5 3 WNW - 9 -
17.10.2017 21:00:00 16,0 9,0 9 5 NNW - 9 -
17.10.2017 20:00:00 17,0 9,3 9 5 ENE 1023,2 8 -
17.10.2017 19:00:00 20,0 9,0 8 4 E - 7 -
17.10.2017 18:00:00 23,0 8,0 8 4 E - 7 -
17.10.2017 17:00:00 22,8 9,1 5 3 - 1023,3 7 0,0
17.10.2017 16:00:00 22,0 9,0 4 2 - - 7 -
17.10.2017 15:00:00 23,0 9,0 5 3 SSE - 7 -
17.10.2017 14:00:00 22,2 9,1 5 3 SE 1025,1 10 -
17.10.2017 13:00:00 21,0 8,0 5 3 - - 10 -
17.10.2017 12:00:00 19,0 8,0 8 4 E - 10 -
17.10.2017 11:00:00 19,2 7,2 4 2 - 1026,9 10 0,0
17.10.2017 10:00:00 15,0 7,0 4 2 S - 10 -
17.10.2017 09:00:00 12,0 7,0 5 3 NW - 10 -
17.10.2017 08:00:00 11,0 6,0 5 3 W 1026,6 10 -
17.10.2017 07:00:00 10,0 6,0 2 1 - - 10 -
17.10.2017 06:00:00 12,0 7,0 5 3 NW - 10 -
17.10.2017 05:00:00 11,7 7,8 2 1 - 1026,8 10 0,0
17.10.2017 04:00:00 13,0 7,0 8 4 NW - 10 -
17.10.2017 03:00:00 14,0 7,0 8 4 WNW - 10 -
17.10.2017 02:00:00 12,3 7,4 2 1 - 1027,4 10 -
17.10.2017 01:00:00 14,0 8,0 4 2 NNW - 10 -
17.10.2017 00:00:00 15,0 9,0 4 2 - - 10 -
16.10.2017 23:00:00 14,3 9,5 4 2 - 1027,6 10 0,0
16.10.2017 22:00:00 16,0 10,0 5 3 NW - 10 -
16.10.2017 21:00:00 17,0 10,0 8 4 NNW - 10 -
16.10.2017 20:00:00 19,1 9,9 8 4 WNW 1026,8 10 -
16.10.2017 19:00:00 22,0 10,0 2 1 ENE - 10 -
16.10.2017 18:00:00 24,0 10,0 4 2 - - 10 -
16.10.2017 17:00:00 24,5 9,3 4 2 - 1026,6 10 0,0
16.10.2017 16:00:00 25,0 9,0 4 2 - - 10 -
16.10.2017 15:00:00 24,0 10,0 5 3 - - 10 -
16.10.2017 14:00:00 22,8 10,1 5 3 - 1027,9 10 -
16.10.2017 13:00:00 21,0 10,0 5 3 SE - 10 -
16.10.2017 12:00:00 19,0 11,0 4 2 - - 8 -
16.10.2017 11:00:00 17,8 10,8 4 2 - 1029,2 8 0,0
16.10.2017 10:00:00 16,0 10,0 2 1 - - 10 -
16.10.2017 09:00:00 12,0 8,0 4 2 WNW - 10 -
16.10.2017 08:00:00 12,4 7,5 8 4 NW 1028,6 10 -
16.10.2017 07:00:00 12,0 8,0 4 2 W - 10 -
16.10.2017 06:00:00 11,0 7,0 2 1 - - 10 -
16.10.2017 05:00:00 11,3 7,6 5 3 WNW 1028,2 10 0,0
16.10.2017 04:00:00 13,0 8,0 5 3 NW - 10 -
16.10.2017 03:00:00 13,0 8,0 5 3 WNW - 10 -
16.10.2017 02:00:00 13,5 9,0 9 5 NW 1028,7 8 -
16.10.2017 01:00:00 14,0 9,0 4 2 W - 8 -
16.10.2017 00:00:00 16,0 10,0 5 3 N - 8 -
15.10.2017 23:00:00 15,4 9,2 5 3 N 1028,5 8 0,0
15.10.2017 22:00:00 17,0 10,0 5 3 NW - 8 -
15.10.2017 21:00:00 18,0 11,0 8 4 NW - 8 -
15.10.2017 20:00:00 18,8 10,7 8 4 WNW 1027,9 10 -
15.10.2017 19:00:00 21,0 11,0 2 1 E - 10 -
15.10.2017 18:00:00 24,0 11,0 4 2 - - 10 -
15.10.2017 17:00:00 24,7 10,4 4 2 - 1027,3 10 0,0
15.10.2017 16:00:00 24,0 11,0 5 3 - - 10 -
15.10.2017 15:00:00 23,0 11,0 5 3 SSW - 10 -
15.10.2017 14:00:00 22,8 11,0 5 3 - 1028,8 10 -
15.10.2017 13:00:00 21,0 11,0 5 3 SSE - 10 -
15.10.2017 12:00:00 19,0 11,0 5 3 SSE - 10 -
15.10.2017 11:00:00 17,9 10,3 5 3 S 1030,2 10 0,0
15.10.2017 10:00:00 15,0 10,0 4 2 - - 10 -
15.10.2017 09:00:00 12,0 9,0 4 2 NW - 6 -
15.10.2017 08:00:00 11,4 8,1 2 1 - 1029,7 6 -
15.10.2017 07:00:00 12,0 8,0 5 3 WNW - 7 -
15.10.2017 06:00:00 12,0 8,0 5 3 WNW - 7 -
15.10.2017 05:00:00 12,4 9,4 4 2 N 1029,1 7 0,0
15.10.2017 04:00:00 15,0 9,0 8 4 NW - 7 -
15.10.2017 03:00:00 14,0 9,0 9 5 WNW - 6 -
15.10.2017 02:00:00 13,2 9,6 9 5 WNW 1029,7 6 -
15.10.2017 01:00:00 14,0 10,0 4 2 NW - 7 -
15.10.2017 00:00:00 14,0 11,0 2 1 - - 7 -
14.10.2017 23:00:00 17,1 10,6 8 4 NW 1029,2 7 0,0
14.10.2017 22:00:00 16,0 11,0 8 4 NW - 7 -
14.10.2017 21:00:00 17,0 11,0 8 4 NW - 5 -
14.10.2017 20:00:00 18,5 10,8 5 3 NNW 1028,1 4,0 -
14.10.2017 19:00:00 21,0 11,0 4 2 E - 7 -
14.10.2017 18:00:00 23,0 11,0 5 3 E - 8 -
14.10.2017 17:00:00 23,6 10,2 5 3 - 1027,1 8 0,0
14.10.2017 16:00:00 23,0 11,0 5 3 - - 8 -
14.10.2017 15:00:00 23,0 11,0 5 3 S - 8 -
14.10.2017 14:00:00 22,1 11,1 5 3 - 1028,0 8 -
14.10.2017 13:00:00 20,0 11,0 5 3 E - 7 -
14.10.2017 12:00:00 18,0 11,0 5 3 ENE - 7 -
14.10.2017 11:00:00 17,4 10,5 2 1 - 1029,4 7 0,0
14.10.2017 10:00:00 17,0 9,0 0 0 N - 8 -
14.10.2017 09:00:00 12,0 8,0 4 2 WNW - 8 -
14.10.2017 08:00:00 12,1 7,2 8 4 WNW 1028,1 8 -
14.10.2017 07:00:00 11,0 8,0 8 4 WNW - 8 -
14.10.2017 06:00:00 12,0 9,0 8 4 NW - 6 -
14.10.2017 05:00:00 11,8 10,2 4 2 - 1027,6 8 0,0
14.10.2017 04:00:00 12,0 9,0 4 2 - - 8 -
14.10.2017 03:00:00 12,0 8,0 5 3 NW - 8 -
14.10.2017 02:00:00 12,9 8,7 5 3 NW 1027,4 8 -
14.10.2017 01:00:00 14,0 10,0 5 3 WNW - 8 -
14.10.2017 00:00:00 14,0 10,0 2 1 - - 8 -
13.10.2017 23:00:00 14,2 10,1 9 5 NW 1027,1 8 0,0
13.10.2017 22:00:00 16,0 11,0 8 4 NW - 8 -
13.10.2017 21:00:00 17,0 11,0 8 4 NW - 7 -
13.10.2017 20:00:00 17,9 11,1 5 3 N 1026,3 7 -
13.10.2017 19:00:00 20,0 11,0 5 3 ENE - 8 -
13.10.2017 18:00:00 22,0 11,0 2 1 - - 8 -
13.10.2017 17:00:00 22,2 11,0 4 2 - 1025,8 8 0,0
13.10.2017 16:00:00 23,0 11,0 5 3 SSE - 8 -
13.10.2017 15:00:00 22,0 11,0 8 4 S - 8 -
13.10.2017 14:00:00 21,2 10,8 8 4 - 1027,1 10 -
13.10.2017 13:00:00 20,0 11,0 5 3 - - 10 -
13.10.2017 12:00:00 18,0 10,0 8 4 E - 10 -
13.10.2017 11:00:00 17,3 10,2 5 3 ENE 1028,1 8 0,0
13.10.2017 10:00:00 14,0 9,0 4 2 - - 8 -
13.10.2017 09:00:00 11,0 7,0 4 2 W - 7 -
13.10.2017 08:00:00 10,4 6,1 2 1 W 1026,6 10 -
13.10.2017 07:00:00 11,0 7,0 8 4 WNW - 10 -
13.10.2017 06:00:00 11,0 7,0 8 4 W - 10 -
13.10.2017 05:00:00 10,9 7,2 4 2 W 1026,4 10 0,0
13.10.2017 04:00:00 11,0 8,0 2 1 - - 10 -
13.10.2017 03:00:00 10,0 8,0 2 1 - - 10 -
13.10.2017 02:00:00 12,9 7,9 5 3 NNW 1026,8 10 -
13.10.2017 01:00:00 14,0 8,0 9 5 NW - 10 -
13.10.2017 00:00:00 14,0 9,0 8 4 NW - 10 -
12.10.2017 23:00:00 15,1 9,5 13 7 NNW 1026,6 10 0,0
12.10.2017 22:00:00 16,0 10,0 9 5 NNW - 10 -
12.10.2017 21:00:00 16,0 10,0 5 3 NW - 10 -
12.10.2017 20:00:00 17,7 8,6 8 4 W 1025,1 10 -
12.10.2017 19:00:00 21,0 8,0 5 3 SW - 8 -
12.10.2017 18:00:00 23,0 8,0 4 2 - - 10 -
12.10.2017 17:00:00 22,6 8,9 4 2 - 1024,4 7 0,0
12.10.2017 16:00:00 22,0 9,0 5 3 - - 7 -

tt = Température de l'air
td = dewpoint
ff = Vitesse du vent
dd = Direction du vent
ppp = reduced air pressure
vv = visibility
rr = Quantités de précipitations

stations d'obs. à proximité